• In Österreich
  • Länderverzeichnis
  • Für 7 Tage
  • Wassertemperatur
  • Satellitenkarten
  • Wetterkarte
  • News
  • Widgets
  • user-avatar
    Anmelden

    Stündliche Wetter Tanger

    Heute, 19 September, Mittwoch

    Zeit Temperatur Niederschläge Wind Luftdruck Luftfeuchtigkeit
    00:00 +26°C° 0 mm 2 m/S 761 mmHg 77%
    01:00 +25°C° 0 mm 2 m/S 761 mmHg 78%
    02:00 +25°C° 0 mm 2 m/S 761 mmHg 78%
    03:00 +25°C° 0 mm 2 m/S 761 mmHg 78%
    04:00 +25°C° 0 mm 2 m/S 761 mmHg 78%
    05:00 +25°C° 0 mm 2 m/S 761 mmHg 78%
    06:00 +24°C° 0 mm 2 m/S 761 mmHg 82%
    07:00 +26°C° 0 mm 2 m/S 761 mmHg 74%
    08:00 +27°C° 0 mm 2 m/S 762 mmHg 66%
    09:00 +29°C° 0 mm 2 m/S 762 mmHg 58%
    10:00 +31°C° 0 mm 3 m/S 762 mmHg 53%
    11:00 +33°C° 0 mm 3 m/S 762 mmHg 48%
    12:00 +33°C° 0 mm 3 m/S 763 mmHg 48%
    13:00 +34°C° 0 mm 3 m/S 762 mmHg 48%
    14:00 +34°C° 0 mm 3 m/S 762 mmHg 47%
    15:00 +34°C° 0 mm 3 m/S 762 mmHg 46%
    16:00 +33°C° 0 mm 3 m/S 762 mmHg 51%
    17:00 +31°C° 0 mm 3 m/S 761 mmHg 56%
    18:00 +30°C° 0 mm 3 m/S 761 mmHg 60%
    19:00 +29°C° 0 mm 3 m/S 762 mmHg 65%
    20:00 +28°C° 0 mm 3 m/S 762 mmHg 70%
    21:00 +27°C° 0 mm 3 m/S 762 mmHg 75%
    22:00 +26°C° 0 mm 3 m/S 762 mmHg 76%
    23:00 +26°C° 0 mm 3 m/S 762 mmHg 77%

    Morgen, 20 September, Donnerstag

    Zeit Temperatur Niederschläge Wind Luftdruck Luftfeuchtigkeit
    00:00 +26°C° 0 mm 4 m/S 762 mmHg 78%
    01:00 +25°C° 0 mm 4 m/S 762 mmHg 78%
    02:00 +25°C° 0 mm 4 m/S 761 mmHg 79%
    03:00 +25°C° 0 mm 4 m/S 761 mmHg 80%
    04:00 +25°C° 0 mm 4 m/S 761 mmHg 80%
    05:00 +23°C° 0 mm 4 m/S 761 mmHg 80%
    06:00 +23°C° 0 mm 4 m/S 761 mmHg 80%
    07:00 +26°C° 0 mm 4 m/S 762 mmHg 73%
    08:00 +28°C° 0 mm 4 m/S 762 mmHg 67%
    09:00 +29°C° 0 mm 4 m/S 762 mmHg 60%
    10:00 +30°C° 0 mm 4 m/S 762 mmHg 56%
    11:00 +33°C° 0 mm 4 m/S 762 mmHg 52%
    12:00 +34°C° 0 mm 4 m/S 762 mmHg 48%
    13:00 +34°C° 0 mm 4 m/S 761 mmHg 48%
    14:00 +34°C° 0 mm 4 m/S 761 mmHg 48%
    15:00 +34°C° 0 mm 5 m/S 761 mmHg 48%
    16:00 +33°C° 0 mm 4 m/S 761 mmHg 53%
    17:00 +32°C° 0 mm 4 m/S 760 mmHg 58%
    18:00 +30°C° 0 mm 4 m/S 760 mmHg 63%
    19:00 +29°C° 0 mm 4 m/S 761 mmHg 69%
    20:00 +27°C° 0 mm 4 m/S 761 mmHg 74%
    21:00 +26°C° 0 mm 3 m/S 761 mmHg 79%
    22:00 +26°C° 0 mm 3 m/S 761 mmHg 79%
    23:00 +26°C° 0 mm 3 m/S 761 mmHg 80%

    übermorgen, 21 September, Freitag

    Zeit Temperatur Niederschläge Wind Luftdruck Luftfeuchtigkeit
    00:00 +25°C° 0 mm 3 m/S 761 mmHg 80%
    01:00 +25°C° 0 mm 3 m/S 761 mmHg 80%
    02:00 +25°C° 0 mm 3 m/S 761 mmHg 80%
    03:00 +25°C° 0 mm 3 m/S 761 mmHg 80%
    04:00 +25°C° 0 mm 3 m/S 761 mmHg 80%
    05:00 +24°C° 0 mm 3 m/S 761 mmHg 80%
    06:00 +24°C° 0 mm 3 m/S 761 mmHg 80%
    07:00 +26°C° 0 mm 3 m/S 761 mmHg 74%
    08:00 +27°C° 0 mm 3 m/S 761 mmHg 68%
    09:00 +29°C° 0 mm 3 m/S 762 mmHg 62%
    10:00 +30°C° 0 mm 3 m/S 762 mmHg 58%
    11:00 +33°C° 0 mm 3 m/S 762 mmHg 53%
    12:00 +34°C° 0 mm 3 m/S 762 mmHg 48%
    13:00 +34°C° 0 mm 4 m/S 761 mmHg 47%
    14:00 +34°C° 0 mm 4 m/S 761 mmHg 47%
    15:00 +35°C° 0 mm 4 m/S 760 mmHg 46%
    16:00 +33°C° 0 mm 4 m/S 760 mmHg 49%
    17:00 +32°C° 0 mm 4 m/S 760 mmHg 53%
    18:00 +30°C° 0 mm 4 m/S 760 mmHg 57%
    19:00 +29°C° 0 mm 4 m/S 761 mmHg 61%
    20:00 +28°C° 0 mm 5 m/S 761 mmHg 65%
    21:00 +27°C° 0 mm 5 m/S 762 mmHg 69%
    22:00 +26°C° 0 mm 5 m/S 762 mmHg 69%
    23:00 +26°C° 0 mm 5 m/S 762 mmHg 68%

    22 September, Samstag

    Zeit Temperatur Niederschläge Wind Luftdruck Luftfeuchtigkeit
    00:00 +25°C° 0 mm 5 m/S 762 mmHg 68%
    01:00 +25°C° 0 mm 5 m/S 761 mmHg 68%
    02:00 +25°C° 0 mm 5 m/S 761 mmHg 67%
    03:00 +25°C° 0 mm 5 m/S 761 mmHg 66%
    04:00 +25°C° 0 mm 5 m/S 761 mmHg 66%
    05:00 +23°C° 0 mm 5 m/S 761 mmHg 66%
    06:00 +23°C° 0 mm 5 m/S 762 mmHg 66%
    07:00 +26°C° 0 mm 6 m/S 762 mmHg 58%
    08:00 +28°C° 0 mm 6 m/S 762 mmHg 50%
    09:00 +30°C° 0 mm 6 m/S 763 mmHg 42%
    10:00 +32°C° 0 mm 7 m/S 763 mmHg 37%
    11:00 +34°C° 0 mm 7 m/S 763 mmHg 32%
    12:00 +35°C° 0 mm 7 m/S 763 mmHg 28%
    13:00 +35°C° 0 mm 7 m/S 762 mmHg 29%
    14:00 +35°C° 0 mm 8 m/S 762 mmHg 30%
    15:00 +34°C° 0 mm 8 m/S 762 mmHg 31%
    16:00 +33°C° 0 mm 8 m/S 762 mmHg 37%
    17:00 +30°C° 0 mm 7 m/S 762 mmHg 42%
    18:00 +29°C° 0 mm 7 m/S 762 mmHg 48%
    19:00 +28°C° 0 mm 7 m/S 762 mmHg 53%
    20:00 +27°C° 0 mm 7 m/S 763 mmHg 58%
    21:00 +24°C° 0 mm 7 m/S 763 mmHg 63%
    22:00 +24°C° 0 mm 7 m/S 763 mmHg 63%
    23:00 +24°C° 0 mm 7 m/S 763 mmHg 64%

    23 September, Sonntag

    Zeit Temperatur Niederschläge Wind Luftdruck Luftfeuchtigkeit
    00:00 +24°C° 0 mm 7 m/S 763 mmHg 64%
    01:00 +23°C° 0 mm 7 m/S 762 mmHg 66%
    02:00 +23°C° 0 mm 7 m/S 762 mmHg 67%
    03:00 +23°C° 0 mm 7 m/S 762 mmHg 68%
    04:00 +23°C° 0 mm 7 m/S 762 mmHg 69%
    05:00 +22°C° 0 mm 6 m/S 762 mmHg 70%
    06:00 +22°C° 0 mm 6 m/S 762 mmHg 71%
    07:00 +24°C° 0 mm 6 m/S 762 mmHg 64%
    08:00 +27°C° 0 mm 6 m/S 763 mmHg 58%
    09:00 +29°C° 0 mm 6 m/S 763 mmHg 52%
    10:00 +30°C° 0 mm 6 m/S 763 mmHg 48%
    11:00 +33°C° 0 mm 6 m/S 763 mmHg 44%
    12:00 +34°C° 0 mm 6 m/S 763 mmHg 39%
    13:00 +35°C° 0 mm 6 m/S 762 mmHg 40%
    14:00 +35°C° 0 mm 6 m/S 762 mmHg 40%
    15:00 +35°C° 0 mm 6 m/S 761 mmHg 40%
    16:00 +33°C° 0 mm 6 m/S 761 mmHg 46%
    17:00 +32°C° 0 mm 6 m/S 761 mmHg 52%
    18:00 +29°C° 0 mm 6 m/S 761 mmHg 58%
    19:00 +28°C° 0 mm 5 m/S 762 mmHg 63%
    20:00 +27°C° 0 mm 5 m/S 762 mmHg 68%
    21:00 +26°C° 0 mm 5 m/S 762 mmHg 74%
    22:00 +25°C° 0 mm 5 m/S 762 mmHg 73%
    23:00 +25°C° 0 mm 5 m/S 762 mmHg 73%

    24 September, Montag

    Zeit Temperatur Niederschläge Wind Luftdruck Luftfeuchtigkeit
    00:00 +25°C° 0 mm 5 m/S 762 mmHg 72%
    01:00 +25°C° 0 mm 5 m/S 762 mmHg 72%
    02:00 +23°C° 0 mm 5 m/S 761 mmHg 72%
    03:00 +23°C° 0 mm 5 m/S 761 mmHg 72%
    04:00 +23°C° 0 mm 5 m/S 761 mmHg 72%
    05:00 +23°C° 0 mm 5 m/S 761 mmHg 72%
    06:00 +23°C° 0 mm 4 m/S 761 mmHg 72%
    07:00 +26°C° 0 mm 4 m/S 761 mmHg 66%
    08:00 +28°C° 0 mm 4 m/S 762 mmHg 59%
    09:00 +30°C° 0 mm 4 m/S 762 mmHg 52%
    10:00 +32°C° 0 mm 4 m/S 762 mmHg 47%
    11:00 +34°C° 0 mm 5 m/S 762 mmHg 42%
    12:00 +35°C° 0 mm 5 m/S 762 mmHg 37%
    13:00 +35°C° 0 mm 5 m/S 761 mmHg 37%
    14:00 +36°C° 0 mm 5 m/S 761 mmHg 37%
    15:00 +36°C° 0 mm 6 m/S 760 mmHg 37%
    16:00 +34°C° 0 mm 6 m/S 760 mmHg 43%
    17:00 +32°C° 0 mm 6 m/S 760 mmHg 48%
    18:00 +30°C° 0 mm 6 m/S 760 mmHg 54%
    19:00 +29°C° 0 mm 6 m/S 761 mmHg 59%
    20:00 +28°C° 0 mm 6 m/S 761 mmHg 64%
    21:00 +26°C° 0 mm 6 m/S 761 mmHg 69%
    22:00 +26°C° 0 mm 6 m/S 761 mmHg 69%
    23:00 +26°C° 0 mm 6 m/S 761 mmHg 68%
    Mehr zeigen